Volver al catálogo

SL-3 R/B

ActivoPO
NORAD 7575·ROCKET BODY·🇷🇺 Russia

Lanzado Dec 17, 1974 desde Plesetsk Cosmodrome

Loading…

Próximos Pases (próximas 24 horas)

TLE

ActualizadoSource: Space-Track

Época: Sep 14, 2026, 05:23 UTC

1 07575U 74099B   26257.22479965 -.00000096  00000-0 -59515-4 0  9995
2 07575  81.2419 261.6963 0050661  57.6195 302.9865 14.11589710662548

Sigue SL-3 R/B en tiempo real con AllMySat

Download on the App Store